Вернуться в каталог

FENGYUN 1C DEB

АктивенPO
NORAD 32119·DEBRIS·🇨🇳 China

Запущен May 10, 1999 с Taiyuan Satellite Launch Center

Loading…

Ближайшие Пролёты (ближайшие 24 часа)

TLE

УстаревающийSource: Space-Track

Эпоха: Sep 9, 2026, 10:19 UTC

1 32119U 99025CRM 26252.43038752  .00000749  00000-0  49497-3 0  9996
2 32119  99.8606 142.8155 0086520  41.8441 318.9294 14.03395187975249

Отслеживайте FENGYUN 1C DEB в реальном времени с AllMySat

Download on the App Store